AirNav   Pilot Hours Calculator
 
 599 users online  

PA88 Nemacolin Airport
Farmington, Pennsylvania, USA

GOING TO FARMINGTON?


FAA INFORMATION EFFECTIVE 25 MARCH 2021

Location

FAA Identifier: PA88
Lat/Long: 39-48-20.2730N 079-32-56.1480W
39-48.337883N 079-32.935800W
39.8056314,-79.5489300
(estimated)
Elevation: 2010 ft. / 613 m (estimated)
Variation: 08W (1985)
From city: 1 mile E of FARMINGTON, PA
Time zone: UTC -4 (UTC -5 during Standard Time)
Zip code: 15437

Airport Operations

Airport use: Private use. Permission required prior to landing
Activation date: 12/1969
Control tower: no
ARTCC: CLEVELAND CENTER
FSS: ALTOONA FLIGHT SERVICE STATION
Attendance: UNATNDD
Wind indicator: yes
Segmented circle: no
Lights: ACTIVATE MIRL RY 05/23 - 123.0.
Beacon: white-green (lighted land airport)
FOR ROTG BCN, PHONE 724-329-8555.

Airport Communications

UNICOM: 123.0
WX AWOS-3P at VVS (10 nm NW): 133.325 (724-626-8745)
WX AWOS-3 at 2G4 (17 nm SE): 120.125 (301-746-8443)
WX ASOS at MGW (20 nm SW): 120.675 (304-296-7103)

Nearby radio navigation aids

VOR radial/distance  VOR name  Freq  Var
IHDr227/13.4INDIAN HEAD VORTAC108.2006W
MGWr049/20.7MORGANTOWN VOR/DME111.6005W
AGCr150/36.3ALLEGHENY VOR/DME110.0009W

 
NDB name  Hdg/Dist  Freq  Var  ID
CAMOR125/10.129908WVV ...- ...-
STOYSTOWN250/33.620910WSYS ... -.-- ...

Airport Services

Airframe service: NONE
Powerplant service: NONE

Runway Information

Runway 5/23

Dimensions: 3980 x 50 ft. / 1213 x 15 m
Surface: asphalt
Runway edge lights: medium intensity
RUNWAY 5  RUNWAY 23
Traffic pattern: leftleft
Displaced threshold: no900 ft.

Airport Ownership and Management from official FAA records

Ownership: Privately-owned
Owner: NEMACOLIN WOODLANDS INC
1001 LAFAYETTE DRIVE
FARMINGTON, PA 15437
Phone 724-329-6121
Manager: DAVID COLLINS
1001 LAFAYETTE DRIVE
FARMINGTON, PA 15437
Phone (724) 329-6121

Additional Remarks

FOR CD CTC JOHNSTOWN APCH AT 814-532-5960, WHEN APCH CLSD CTC CLEVELAND ARTCC AT 440-774-0234.

Instrument Procedures

There are no published instrument procedures at PA88.

Some nearby airports with instrument procedures:

KVVS - Joseph A Hardy Connellsville Airport (10 nm NW)
2G4 - Garrett County Airport (17 nm SE)
KMGW - Morgantown Municipal Airport-Walter L. Bill Hart Field (20 nm SW)
KWAY - Greene County Airport (27 nm W)
KFWQ - Rostraver Airport (28 nm NW)
 
Loc | Ops | Rwys | IFR | FBO | Links
Com | Nav | Svcs | Stats | Notes
Area around PA88 (Nemacolin Airport)
 
Road maps at: MapQuest Bing Google
 
Aerial photo
WARNING: Photo may not be current or correct
Aerial photo of PA88 (Nemacolin Airport)
Photo by Don MacLennan
Photo taken 29-Jun-2019
looking southwest.

Do you have a better or more recent aerial photo of Nemacolin Airport that you would like to share? If so, please send us your photo.

 
Sectional chart

 
Airport distance calculator
Flying to Nemacolin Airport? Find the distance to fly.

From to PA88

Sunrise and sunset
Times for 18-Apr-2021
 Local
(UTC-4)
 Zulu
(UTC)
Morning civil twilight06:0910:09
Sunrise06:3710:37
Sunset19:5823:58
Evening civil twilight20:2600:26

Current date and time
Zulu (UTC)  18-Apr-2021 06:03:21
Local (UTC-4)  18-Apr-2021 02:03:21
 
METAR
KVVS 
10nm NW 
180555Z AUTO 00000KT 10SM OVC110 03/02 A2990 RMK AO2 T00330018 10088 20029
K2G4 
17nm SE 
180555Z AUTO 00000KT 10SM BKN065 OVC080 02/01 A2986 RMK AO1
KMGW 
19nm SW 
180553Z AUTO 00000KT 10SM -RA OVC065 07/03 A2990 RMK AO2 RAB23 SLP128 P0000 60000 T00670028 10106 20067 58003
TAF
KMGW 
19nm SW 
171720Z 1718/1818 29005KT P6SM SCT040 FM172000 31005KT P6SM VCSH OVC050 FM180500 00000KT 2SM BR SCT029 FM180900 00000KT 1/2SM FG SCT024 FM181100 00000KT 2SM BR SCT026 FM181300 VRB02KT P6SM OVC050
NOTAMs
Click for the latest NOTAMs
NOTAMs are issued by the DoD/FAA and will open in a separate window not controlled by AirNav.

 

 
 

Would you like to see your business listed on this page?

 If your business provides an interesting product or service to pilots, flight crews, aircraft, or users of the Nemacolin Airport, you should consider listing it here.  To start the listing process, click on the button below
 
Add a business
 

Other Pages about Nemacolin Airport

www.nemacolin.com/airfield
 
Update a link
 
Copyright © AirNav, LLC. All rights reserved. Privacy Policy  Contact